YAOGAN 19

Satellite information

Favourite Embed

Satellite Type and Status

PAYLOADIN ORBIT

Key statistics

Satellite YAOGAN 19 at a glance.

Uptime

4302

Days in orbit

Revolutions

≈ 13.2

Per day

Orbit

SSO

Sun Synchronous Orbit

Inclination

100.1

Latest

Satellite identification and parameters

Extended collection of information and parameters for YAOGAN 19.

Object identification

Identified? True

Debris? False

Object name: YAOGAN 19

International designator: 2013-065A

Object number (NORAD): 39410

Object ID (CCSDS): 39410

Country: PEOPLES REPUBLIC OF CHINA (PRC)

Current information (Y/N): Y

RCS size: LARGE

Orbital parameters

Period: 109.459 minutes

Inclination: 100.0764 deg

SMA: 7579.844 km

Apoapsis: 1209.266 km

Periapsis: 1194.152 km

RAAN: 227.8084 deg

Eccentricy: 0.000997

Argument of periapsis: 39.5303 deg

Mean anomaly: 320.6536 deg

Mean motion: 13.1556523 rev/day

Mean motion (dot): -0.00000029 rev/day2

B* drag term: 0.000034802792 1/REarth

Two-line elements (TLE)

Creation date: Aug. 31, 2025, 2:26 a.m.

Reference frame: TEME

Reference center: EARTH

Epoch: Aug. 30, 2025, 11:01 p.m. UTC

TLE line 0: 0 YAOGAN 19

TLE line 1: 1 39410U 13065A 25242.95932351 -.00000029 00000-0 34803-4 0 9998

TLE line 2: 2 39410 100.0764 227.8084 0009970 39.5303 320.6536 13.15565230565480

Live tracking on map

Real-time ground track for satellite YAOGAN 19.

In-orbit conjunctions

There are no conjunctions computed for YAOGAN 19, at the moment. Check back to stay up to date, as we update our databases every day.

Go to all conjunctions

Associated space launch

YAOGAN 19 was lifted into orbit during the mission ‘Long March 4C | Yaogan 19’, on board a Long March 4C space rocket.

The launch took place on Nov. 20, 2013, 3:31 a.m. from Launch Complex 9.

For more information about the launch, click the button.

Launch to space Long March 4C | Yaogan 19
Long March 4C | Yaogan 19

Agency: N/A

Status: Launch Successful

Launch date: Nov. 20, 2013, 3:31 a.m. UTC

Rocket: Long March 4C

Launch pad: Launch Complex 9

Location: Taiyuan Satellite Launch Center, People's Republic of China

...

Latest news about this satellite

There are no fresh news available about this satellite. Check back as we update our databases every day.


Newsletter sign-up

Weekly statistics, charts and insights to help you stay on top of the space industry.